Погода в Бучаче

Украина / Тернопольская область     49°03′51″N   25°22′52″E
темп.,
°C
ветер,
м/с
пор.,
м/с
влажн.,
%
обл.,
%
осадки,
мм/ч
давл.,
гПа
погр.,
м
21 января, пт
пт2123:00−4зсз9167724 0.6 10111000
02:00−4з9177798 0.6 10121091
05:00−4зсз9167884 0.0 1012980
08:00−5зсз91577100 0.0 1014977
11:00−4зсз10157414 0.0 10141100
14:00−3зсз101576100 0.0 10141138
17:00−4зсз9158183 0.0 1014844
20:00−4з9168994 0.1 1014939
22 января, сб
сб2223:00−4з91593100 0.4 1015985
02:00−5зсз91593100 1.0 1015944
05:00−5зсз81493100 0.3 1014842
08:00−6зсз8149296 0.5 1014708
11:00−4зсз81391100 0.1 1015856
14:00−3зсз81190100 1.1 1015968
17:00−5сз6128898 0.2 1018607
20:00−5сз61291100 0.2 1020631
23 января, вс
вс2323:00−5сз61291100 0.2 1020812
02:00−4зсз51295100 0.9 1019957
05:00−5ссз51092100 0.6 1020661
08:00−5ссз51093100 0.8 1021759
11:00−5ссз6992100 0.4 1023820
14:00−5с6888100 0.6 1025827
17:00−6с5989100 0.1 1027638
20:00−7с489399 0.4 1029625
24 января, пн
пн2423:00−9с479488 0.1 1031325
02:00−9с479494 0.2 1033301
05:00−11ссз369668 0.1 1034178
08:00−13сз359628 0.1 103594
11:00−10сз459186 0.0 1036259
14:00−8сз5787100 0.0 1034494
17:00−9сз499328 0.0 1035243
20:00−11сз379670 0.0 1035122
25 января, вт
вт2523:00−12зсз369748 0.0 103497
02:00−13зсз229863 0.0 103335
05:00−14зсз239641 0.0 103242
08:00−14з229579 0.0 103030
11:00−8зюз237598 0.0 102797
14:00−7зюз3685100 0.1 1024227
17:00−5зюз41396100 1.5 1021462
20:00−3зсз71595100 2.9 1019610